This demonstration page uses our WeatherBlox Daily Observations layout. Learn more.

Left ArrowRight Arrow

39.12711, -84.51439

Hourly Observations for August 18, 2016

Temp ( °F °C ) Dew Point ( °F °C ) Humidity (%) Winds ( mph kmh ) Pressure ( in mb ) Visibility ( mi km ) Precip ( " mm )
12:46 am 00:46 Clear with Mist and Fog 70 21 70 21 100 100 N N/A 30.09 1019 2 3 N/A
12:53 am 00:53 Clear with Fog 70 21.1 70 21.1 100 100 N N/A 30.12 1020 1 1 N/A
1:03 am 01:03 Clear with Mist and Fog 72 22 72 22 100 100 N N/A 30.09 1019 3 4 N/A
1:14 am 01:14 Clear with Mist and Fog 70 21 70 21 100 100 SSW 5 7 30.09 1019 1 2 N/A
1:24 am 01:24 Clear with Mist and Fog 72 22 72 22 100 100 SSW 5 7 30.09 1019 3 5 N/A
1:36 am 01:36 Clear with Mist and Fog 69 20.6 69 20.6 100 100 N N/A 30.09 1019 2 3 N/A
1:53 am 01:53 Clear with Mist and Fog 69 20.6 69 20.6 100 100 NE 3 6 30.11 1020 4 6 N/A
2:03 am 02:03 Clear with Mist and Fog 70 21 70 21 100 100 N N/A 30.09 1019 3 4 N/A
2:11 am 02:11 Clear 69 20.6 69 20.6 100 100 NE 3 6 30.09 1019 9 14 N/A
2:28 am 02:28 Clear with Mist and Fog 70 21 70 21 100 100 N N/A 30.09 1019 2 2 N/A
2:33 am 02:33 Mostly Cloudy with Mist and Fog 69 20.6 69 20.6 100 100 N N/A 30.09 1019 1 1 N/A
2:48 am 02:48 Mostly Clear with Mist and Fog 70 21 70 21 100 100 N N/A 30.09 1019 1 2 N/A
2:51 am 02:51 Mostly Clear with Mist and Fog 70 21 70 21 100 100 N N/A 30.09 1019 4 6 N/A
2:53 am 02:53 Mostly Clear with Mist and Fog 70 21.1 70 21.1 100 100 N N/A 30.11 1020 4 6 N/A
2:55 am 02:55 Mostly Clear with Mist and Fog 69 20.6 69 20.6 100 100 N N/A 30.09 1019 2 2 N/A
2:58 am 02:58 Mostly Cloudy with Mist and Fog 70 21 70 21 100 100 N N/A 30.09 1019 1 1 N/A
3:03 am 03:03 Mostly Cloudy with Fog 70 21 70 21 100 100 N N/A 30.09 1019 0 0 N/A
3:18 am 03:18 Mostly Cloudy with Fog 68 20 68 20 100 100 N N/A 30.09 1019 1 1 N/A
3:38 am 03:38 Mostly Cloudy with Fog 70 21 70 21 100 100 N N/A 30.09 1019 0 0 N/A
3:53 am 03:53 Mostly Cloudy with Fog 68 20 68 20 100 100 N N/A 30.11 1020 0 0 N/A
4:06 am 04:06 Cloudy with Mist and Fog 68 20 68 20 100 100 SW 5 7 30.09 1019 1 1 N/A
4:11 am 04:11 Cloudy with Mist and Fog 69 20.6 69 20.6 100 100 N N/A 30.09 1019 2 3 N/A
4:19 am 04:19 Cloudy with Mist and Fog 70 21.1 70 21.1 100 100 S 3 6 30.09 1019 6 10 N/A
4:53 am 04:53 Mostly Cloudy 70 21.1 70 21.1 100 100 S 5 7 30.11 1020 7 11 N/A
5:53 am 05:53 Partly Cloudy with Mist and Fog 70 21.1 70 21.1 100 100 SSW 7 11 30.12 1020 6 10 N/A
6:53 am 06:53 Cloudy with Mist and Fog 71 21.7 71 21.7 100 100 SSW 3 6 30.13 1020 5 8 N/A
7:53 am 07:53 Cloudy with Mist and Fog 73 22.8 72 22.2 96 96 N N/A 30.13 1020 5 8 N/A
8:42 am 08:42 Cloudy with Mist and Fog 73 23 72 22 94 94 N N/A 30.12 1020 5 8 N/A
8:53 am 08:53 Cloudy with Mist and Fog 74 23.3 72 22.2 94 94 N N/A 30.13 1020 5 8 N/A
9:53 am 09:53 Mostly Cloudy with Mist and Fog 75 23.9 71 21.7 88 88 N N/A 30.13 1020 6 10 N/A
10:10 am 10:10 Mostly Cloudy 75 24 72 22 89 89 VRB 3 6 30.12 1020 7 11 N/A
10:31 am 10:31 Mostly Cloudy with Haze 77 25 72 22.2 85 85 SSE 3 6 30.12 1020 6 10 N/A
10:42 am 10:42 Mostly Cloudy 77 25 72 22.2 85 85 VRB 3 6 30.12 1020 7 11 N/A
10:49 am 10:49 Mostly Cloudy 75 24 72 22 89 89 N N/A 30.12 1020 7 11 N/A
10:53 am 10:53 Partly Cloudy 77 25 71 21.7 82 82 N N/A 30.13 1020 7 11 N/A
11:53 am 11:53 Partly Cloudy 80 26.7 69 20.6 69 69 WSW 5 7 30.11 1020 10 16 N/A
12:53 pm 12:53 Mostly Sunny 80 26.7 69 20.6 69 69 N N/A 30.10 1019 9 14 N/A
1:53 pm 13:53 Sunny 83 28.3 70 21.1 65 65 SSW 6 9 30.09 1019 10 16 N/A
2:53 pm 14:53 Partly Cloudy 85 29.4 71 21.7 63 63 SW 5 7 30.07 1018 10 16 N/A
3:53 pm 15:53 Sunny 84 28.9 71 21.7 65 65 SSE 8 13 30.04 1017 10 16 N/A
4:53 pm 16:53 Partly Cloudy 83 28.3 72 22.2 70 70 S 8 13 30.02 1017 10 16 N/A
5:53 pm 17:53 Mostly Sunny 82 27.8 71 21.7 69 69 S 10 17 30.02 1017 10 16 N/A
6:53 pm 18:53 Partly Cloudy 80 26.7 71 21.7 74 74 S 6 9 30.01 1016 10 16 N/A
7:53 pm 19:53 Mostly Cloudy 78 25.6 72 22.2 82 82 S 6 9 30.02 1017 9 14 N/A
8:53 pm 20:53 Clear 76 24.4 72 22.2 88 88 S 6 9 30.01 1016 10 16 N/A
9:53 pm 21:53 Clear 75 23.9 72 22.2 90 90 S 3 6 30.02 1017 9 14 N/A
10:53 pm 22:53 Mostly Clear 75 23.9 72 22.2 90 90 N N/A 30.02 1017 9 14 N/A
11:53 pm 23:53 Partly Cloudy 73 22.8 72 22.2 96 96 N N/A 30.03 1017 7 11 N/A

Powered by AerisWeather